Weather History for New Philadelphia, OH

Change the Weather History Date:

Friday, July 19, 2013

  Actual Average Record
Temperature  
Mean Temperature 81 °F 73 °F  
Max Temperature 90 °F 84 °F 95 °F (1988)
Min Temperature 72 °F 62 °F 49 °F (1971)
Degree Days  
Heating Degree Days 0 0  
Month to date heating degree days 0 0  
Since 1 June heating degree days 22 35  
Since 1 July heating degree days 0 0  
Cooling Degree Days 16 8  
Month to date cooling degree days 192 143  
Year to date cooling degree days 435 329  
Since 1 June cooling degree days 337 286  
Growing Degree Days 30 (Base 50)    
Moisture  
Dew Point 71 °F    
Average Humidity 75    
Maximum Humidity 93    
Minimum Humidity 56    
Precipitation  
Precipitation 0.36 in 0.14 in 1.68 in (1961)
Month to date precipitation 2.42 2.31  
Year to date precipitation 20.02 21.64  
Sea Level Pressure  
Sea Level Pressure 29.97 in    
Wind  
Wind Speed 4 mph (South)    
Max Wind Speed 8 mph    
Max Gust Speed 12 mph    
Visibility 6 miles    
Events Rain , Thunderstorm    
T = Trace of Precipitation, MM = Missing Value Source: NWS Daily Summary

Daily Weather History Graph

Daily Weather History Graph

Search for Another Location

Airport:

Trip Planner

Search our weather history database for the weather conditions in past years. The results will help you decide how hot, cold, wet, or windy it might be!

Date:

Astronomy

Jul. 19, 2013 Rise Set
Actual Time 6:11 AM EDT 8:52 PM EDT
Civil Twilight 5:39 AM EDT 9:23 PM EDT
Nautical Twilight 4:59 AM EDT 10:03 PM EDT
Astronomical Twilight 4:14 AM EDT 10:48 PM EDT
Moon 5:53 PM EDT (7/19) 2:51 AM EDT (7/19)
Length of Visible Light 15h 44m
Length of Day
14h 40m
Waxing Gibbous, 86% of the Moon is Illuminated
Jul 19
Waxing Gibbous
Jul 22
Full
Jul 29
Last Quarter
Aug 6
New
Aug 14
First Quarter

Hourly Weather History & Observations

Time (EDT) Temp. Heat Index Dew Point Humidity Pressure Visibility Wind Dir Wind Speed Gust Speed Precip Events Conditions
12:53 AM 75.0 °F - 72.0 °F 90% 30.04 in 6.0 mi Calm Calm - N/A   Clear
1:53 AM 73.9 °F - 71.1 °F 91% 30.04 in 5.0 mi Calm Calm - N/A   Clear
2:53 AM 73.0 °F - 70.0 °F 90% 30.03 in 4.0 mi SE 4.6 mph - N/A   Clear
3:53 AM 73.0 °F - 70.0 °F 90% 30.02 in 4.0 mi SE 3.5 mph - N/A   Clear
4:53 AM 73.0 °F - 70.0 °F 90% 30.01 in 4.0 mi SE 4.6 mph - N/A   Clear
5:53 AM 72.0 °F - 69.1 °F 91% 30.00 in 4.0 mi SE 3.5 mph - N/A   Clear
6:18 AM 73.4 °F - 69.8 °F 88% 30.03 in 2.5 mi Calm Calm - N/A   Clear
6:26 AM 71.6 °F - 69.8 °F 94% 30.03 in 3.0 mi Calm Calm - N/A   Clear
6:35 AM 73.4 °F - 69.8 °F 88% 30.02 in 2.0 mi SE 3.5 mph - N/A   Clear
6:53 AM 73.0 °F - 70.0 °F 90% 30.00 in 2.5 mi SE 3.5 mph - N/A   Clear
7:08 AM 73.4 °F - 69.8 °F 88% 30.03 in 3.0 mi Calm Calm - N/A   Clear
7:53 AM 77.0 °F - 72.0 °F 84% 30.00 in 4.0 mi Calm Calm - N/A   Haze
8:53 AM 81.0 °F 85.8 °F 73.0 °F 77% 30.00 in 8.0 mi WSW 3.5 mph - N/A   Clear
9:53 AM 84.0 °F 90.2 °F 73.0 °F 69% 30.01 in 8.0 mi WSW 5.8 mph - N/A   Clear
10:53 AM 86.0 °F 93.0 °F 73.0 °F 65% 30.01 in 10.0 mi Variable 6.9 mph - N/A   Clear
11:53 AM 87.1 °F 93.6 °F 72.0 °F 61% 30.00 in 10.0 mi WSW 11.5 mph 17.3 mph N/A   Mostly Cloudy
12:53 PM 89.1 °F 97.0 °F 73.0 °F 59% 29.98 in 10.0 mi WSW 5.8 mph 16.1 mph N/A   Partly Cloudy
1:53 PM 90.0 °F 96.9 °F 72.0 °F 55% 29.95 in 10.0 mi Variable 5.8 mph - N/A   Scattered Clouds
2:53 PM 90.0 °F 96.4 °F 71.1 °F 54% 29.91 in 10.0 mi WSW 6.9 mph - N/A   Partly Cloudy
3:53 PM 89.1 °F 97.0 °F 73.0 °F 59% 29.90 in 10.0 mi SSW 6.9 mph - N/A Thunderstorm Thunderstorm
4:13 PM 77.0 °F - 69.8 °F 78% 29.93 in 1.8 mi North 9.2 mph 26.5 mph 0.06 in Rain , Thunderstorm Light Thunderstorms and Rain
4:28 PM 75.2 °F - 69.8 °F 83% 29.94 in 3.0 mi Variable 4.6 mph - 0.15 in Rain , Thunderstorm Thunderstorms and Rain
4:39 PM 75.2 °F - 71.6 °F 89% 29.95 in 1.8 mi Variable 5.8 mph - 0.25 in Rain , Thunderstorm Thunderstorms and Rain
4:47 PM 75.2 °F - 69.8 °F 83% 29.95 in 0.8 mi Calm Calm - 0.33 in Rain , Thunderstorm Heavy Thunderstorms and Rain
4:51 PM 75.2 °F - 71.6 °F 89% 29.94 in 1.2 mi Calm Calm - 0.35 in Rain , Thunderstorm Heavy Thunderstorms and Rain
4:53 PM 77.0 °F - 71.1 °F 82% 29.92 in 1.5 mi SW 4.6 mph - 0.35 in Rain , Thunderstorm Thunderstorms and Rain
4:59 PM 75.2 °F - 71.6 °F 89% 29.94 in 3.0 mi Variable 4.6 mph - 0.01 in Rain , Thunderstorm Light Thunderstorms and Rain
5:51 PM 77.0 °F - 69.8 °F 78% 29.97 in 10.0 mi SSE 9.2 mph - 0.01 in   Partly Cloudy
5:53 PM 75.9 °F - 69.1 °F 79% 29.95 in 10.0 mi SSE 9.2 mph - 0.01 in   Partly Cloudy
6:53 PM 75.0 °F - 70.0 °F 84% 29.93 in 10.0 mi SE 4.6 mph - N/A   Clear
8:53 PM 75.9 °F - 68.0 °F 76% 29.89 in 10.0 mi Calm Calm - N/A   Clear
9:53 PM 75.0 °F - 68.0 °F 79% 29.90 in 10.0 mi Calm Calm - N/A   Clear
10:53 PM 73.9 °F - 68.0 °F 82% 29.90 in 10.0 mi Variable 3.5 mph - N/A   Clear
11:53 PM 73.9 °F - 68.0 °F 82% 29.91 in 9.0 mi Calm Calm - N/A   Clear